FW7587 Weather Reports


Display with metric or nautical units.
time (UTC)temp
F
wind
direction
speed
MPH
gust
MPH
rain 1hr
in
rain 24hr
in
rain mn
in
humidity
%
barometer
mb
20260510044548 70 0 0.0 0.0 0.00 0.01 0.01 84 1012.9
20260510043051 71 0 0.0 0.0 0.00 0.01 0.01 82 1013.0
20260510041555 71 0 0.0 0.0 0.00 0.01 0.01 81 1012.8
20260510040053 72 0 0.0 0.0 0.00 0.01 0.01 80 1012.8
20260510034609 72 0 0.0 0.0 0.00 0.01 0.01 78 1012.8
20260510033059 73 0 0.0 0.0 0.00 0.01 0.01 77 1012.5
20260510031551 74 0 0.0 0.0 0.00 0.01 0.01 76 1012.5
20260510030054 74 0 0.0 0.0 0.00 0.01 0.01 75 1012.3
20260510024552 74 0 0.0 0.0 0.00 0.01 0.01 74 1012.0
20260510023054 75 0 0.0 0.0 0.00 0.01 0.01 72 1011.9
20260510021601 76 0 0.0 0.0 0.00 0.01 0.01 69 1011.9
20260510020054 77 0 0.0 0.0 0.00 0.01 0.01 65 1011.7
20260510014601 78 0 0.0 0.0 0.00 0.01 0.01 62 1011.4
20260510013107 80 0 0.0 2.0 0.00 0.01 0.01 60 1011.2
20260510011558 81 0 0.0 7.0 0.00 0.01 0.01 57 1011.1
20260510010052 82 0 0.0 1.0 0.00 0.01 0.01 56 1011.1
20260510004555 83 111 1.0 4.0 0.00 0.01 0.01 55 1010.8
20260510003104 84 104 0.0 5.0 0.00 0.01 0.01 56 1010.4
20260510001552 86 98 1.0 4.0 0.00 0.01 0.01 55 1010.3
20260510000113 87 122 0.0 3.0 0.00 0.01 0.01 54 1010.2
20260509234557 88 162 0.0 4.0 0.00 0.01 0.01 53 1010.1
20260509233050 88 0 1.0 5.0 0.00 0.01 0.01 54 1010.1
20260509231556 88 172 2.0 5.0 0.00 0.01 0.01 53 1009.9
20260509230049 87 163 2.0 8.0 0.00 0.01 0.01 54 1010.0
20260509224553 86 124 1.0 6.0 0.00 0.01 0.01 56 1010.0
20260509223103 85 127 4.0 18.0 0.00 0.01 0.01 55 1010.1
20260509221559 86 105 2.0 11.0 0.00 0.01 0.01 56 1010.1
20260509220053 90 76 0.0 2.0 0.00 0.01 0.01 49 1010.0
20260509214600 92 125 2.0 4.0 0.00 0.01 0.01 46 1010.1
20260509213058 93 116 2.0 5.0 0.00 0.01 0.01 47 1010.1
20260509211553 94 0 0.0 5.0 0.00 0.01 0.01 47 1010.1
20260509210057 93 155 2.0 6.0 0.00 0.01 0.01 48 1010.3
20260509204552 93 295 1.0 5.0 0.00 0.01 0.01 46 1010.6
20260509203056 92 16 1.0 4.0 0.00 0.01 0.01 48 1010.8
20260509201548 91 15 1.0 4.0 0.00 0.01 0.01 49 1010.9
20260509200101 91 296 1.0 6.0 0.00 0.01 0.01 49 1011.2
20260509194558 90 29 2.0 5.0 0.00 0.01 0.01 53 1011.4
20260509193054 90 0 1.0 4.0 0.00 0.01 0.01 54 1011.6
20260509191554 90 0 0.0 4.0 0.00 0.01 0.01 53 1011.9
20260509190054 90 147 3.0 7.0 0.00 0.01 0.01 55 1012.5
20260509184549 89 263 0.0 4.0 0.00 0.01 0.01 58 1012.6
20260509183103 88 354 1.0 4.0 0.00 0.01 0.01 59 1012.5
20260509181553 87 309 2.0 7.0 0.00 0.01 0.01 62 1012.7
20260509180058 87 247 2.0 5.0 0.00 0.01 0.01 63 1012.9
20260509174553 86 203 1.0 6.0 0.00 0.01 0.01 65 1012.9
20260509173052 85 85 1.0 5.0 0.00 0.01 0.01 69 1013.1
20260509171547 83 32 1.0 4.0 0.00 0.01 0.01 68 1013.4
20260509170050 83 0 0.0 4.0 0.00 0.01 0.01 71 1013.3
20260509164553 82 0 0.0 5.0 0.00 0.01 0.01 74 1013.4
20260509163056 81 232 2.0 6.0 0.00 0.01 0.01 75 1013.5
20260509161548 79 0 0.0 2.0 0.00 0.01 0.01 83 1013.7
20260509160055 78 0 0.0 2.0 0.00 0.01 0.01 87 1013.8
20260509154550 76 91 0.0 1.0 0.00 0.01 0.01 89 1013.8
20260509153052 74 0 1.0 4.0 0.00 0.01 0.01 93 1013.7
20260509151553 74 0 0.0 4.0 0.00 0.01 0.01 95 1013.7
20260509150050 73 205 1.0 6.0 0.00 0.01 0.01 96 1013.5
20260509144552 73 149 0.0 2.0 0.00 0.01 0.01 96 1013.6
20260509143057 72 319 0.0 1.0 0.00 0.01 0.01 97 1013.5
20260509141600 71 0 0.0 1.0 0.00 0.01 0.01 97 1013.3
20260509134550 71 0 0.0 1.0 0.00 0.01 0.01 97 1013.2
20260509133052 71 0 0.0 1.0 0.00 0.01 0.01 97 1013.1
20260509131552 71 0 0.0 1.0 0.00 0.01 0.01 97 1013.1
20260509130055 71 0 0.0 2.0 0.00 0.01 0.01 97 1013.2
20260509124554 70 6 0.0 1.0 0.00 0.01 0.01 97 1013.0
20260509123118 70 0 0.0 3.0 0.00 0.01 0.01 97 1012.9
20260509121558 70 0 0.0 4.0 0.00 0.01 0.01 97 1013.1
20260509120058 70 35 4.0 10.0 0.00 0.01 0.01 97 1013.1
20260509114553 71 8 1.0 5.0 0.00 0.01 0.01 97 1013.0
20260509113050 71 58 1.0 5.0 0.00 0.01 0.01 97 1013.2
20260509111554 71 320 2.0 8.0 0.00 0.01 0.01 97 1013.4
20260509110050 71 349 2.0 6.0 0.00 0.01 0.01 97 1013.4
20260509104553 71 0 0.0 1.0 0.00 0.01 0.01 97 1013.0
20260509103100 71 0 0.0 0.0 0.00 0.01 0.01 97 1013.0
20260509101552 71 74 0.0 1.0 0.01 0.01 0.01 97 1012.9
20260509100055 71 0 0.0 1.0 0.01 0.01 0.01 97 1012.4
20260509094552 71 0 0.0 0.0 0.01 0.01 0.01 96 1012.3
20260509093125 71 0 0.0 0.0 0.01 0.01 0.01 96 1012.1
20260509091556 71 0 0.0 1.0 0.00 0.00 0.00 96 1012.3
20260509090056 71 0 0.0 0.0 0.00 0.00 0.00 95 1012.1
20260509084552 71 0 0.0 0.0 0.00 0.00 0.00 94 1012.0
20260509083059 71 0 0.0 0.0 0.00 0.00 0.00 94 1012.1
20260509081559 71 0 0.0 1.0 0.00 0.00 0.00 93 1012.4
20260509080057 71 0 0.0 2.0 0.00 0.00 0.00 93 1012.1
20260509074605 71 91 0.0 2.0 0.00 0.00 0.00 92 1012.1
20260509073047 71 0 0.0 3.0 0.00 0.00 0.00 92 1012.1
20260509071604 71 219 0.0 1.0 0.00 0.00 0.00 92 1012.0
20260509070054 71 0 0.0 2.0 0.00 0.00 0.00 91 1012.3
20260509064548 71 0 0.0 4.0 0.00 0.00 0.00 91 1012.3
20260509063048 71 0 1.0 3.0 0.00 0.00 0.00 91 1012.3
20260509061601 71 183 0.0 4.0 0.00 0.00 0.00 91 1012.2
20260509054607 71 206 0.0 4.0 0.00 0.00 0.00 91 1012.5
20260509053052 71 174 1.0 4.0 0.00 0.00 0.00 91 1012.7
20260509051548 71 193 1.0 4.0 0.00 0.00 0.00 91 1012.8
20260509050054 71 0 0.0 2.0 0.00 0.00 0.00 91 1012.6